Wind_Speed
6 4 3 3 3 5 6 6 7 9 10 10 11 12 12 13 15 15 15 17 16 16 16 15 15 14 14 13 12 14 17 22 20 19 19 16 13 9 16 18 15 16 17 10 14
3 3 3 3 4 6 6 8 9 10 11 11 12 12 12 13 16 17 16 17 17 17 17 17 16 11 13 11 11 17 18 21 19 18 17 4 10 8 13 12 15 15 22 20 20
3 3 3 4 5 6 7 8 9 11 11 12 13 13 13 13 14 23 15 15 15 16 16 16 16 16 16 14 16 20 23 20 21 18 18 19 6 8 10 11 16 21 26 29 26
2 2 3 4 6 6 7 9 11 11 11 12 12 12 11 11 7 15 11 11 12 12 12 13 12 11 14 16 16 24 24 24 21 21 20 24 14 10 16 9 20 18 25 19 21
3 3 4 5 6 7 8 9 10 10 10 11 11 11 12 14 16 18 18 19 19 19 18 18 18 12 14 14 17 22 25 23 25 24 21 26 19 17 17 15 19 21 26 21 16
3 4 4 5 6 7 7 8 9 10 10 11 12 11 11 15 18 19 19 20 20 19 18 17 13 17 22 21 18 19 21 25 25 24 25 23 23 20 24 21 14 24 17 28 22
3 4 4 5 5 7 8 9 10 11 11 11 11 11 12 13 18 19 18 17 18 18 18 18 13 19 14 15 14 19 26 26 27 22 27 22 30 30 24 23 25 22 22 20 23
2 3 4 5 7 9 10 10 10 9 9 10 10 11 10 12 13 15 17 16 15 16 18 19 18 22 21 21 23 21 21 28 26 25 28 25 39 24 27 29 29 27 24 25 22
3 4 6 8 9 9 9 8 8 9 8 7 8 7 6 11 12 17 19 21 20 19 18 18 24 18 15 17 22 22 32 30 27 27 28 32 39 27 23 29 33 26 25 27 29
5 7 8 9 8 7 7 7 7 8 5 5 5 5 11 12 15 15 18 20 19 21 16 12 15 15 14 16 31 24 30 31 34 28 29 35 39 26 16 24 33 28 24 25 30
8 10 10 7 6 6 6 6 6 5 4 2 2 2 8 13 16 20 24 22 21 12 9 5 11 14 19 23 29 30 34 38 36 28 31 36 38 27 22 20 26 26 25 29 30
9 9 8 6 5 5 6 6 4 5 3 4 6 9 10 11 7 18 21 24 22 20 17 12 12 12 15 19 24 24 28 34 35 35 28 29 35 30 29 29 23 22 27 28 27
9 7 6 5 5 5 5 4 5 5 2 4 8 13 14 11 11 14 20 18 16 16 17 13 12 15 17 18 19 22 24 26 28 27 30 25 24 27 27 30 29 25 24 27 24
7 6 6 6 5 4 5 5 3 2 5 4 8 11 11 9 5 14 20 16 13 13 12 6 12 13 14 17 18 25 23 26 27 27 28 26 23 30 28 27 27 28 28 25 23
6 6 6 6 5 5 4 4 3 3 2 2 5 15 9 12 8 12 18 17 14 13 12 14 18 19 18 17 16 21 20 27 27 29 31 38 26 29 33 29 35 29 28 29 28
4 5 5 4 5 5 4 5 5 3 3 1 4 8 6 10 6 12 13 9 11 18 7 17 12 7 11 13 15 17 18 20 26 27 23 33 33 30 28 25 32 36 40 31 23
4 4 4 5 5 4 3 3 2 5 3 2 4 8 6 11 7 12 11 13 18 22 20 14 9 7 10 13 13 11 12 14 12 18 13 25 25 24 15 9 18 9 34 28 24
4 4 5 5 5 4 3 10 2 1 2 5 6 6 6 10 10 12 9 14 16 15 17 14 8 14 17 15 20 18 15 10 9 12 17 31 26 23 10 8 9 21 24 24 24
3 3 6 6 4 2 2 1 3 2 3 4 2 3 5 11 6 8 11 13 15 16 11 9 10 17 10 14 11 10 12 15 19 20 5 15 29 8 6 15 15 14 17 23 24
3 3 7 6 4 3 3 7 1 2 3 4 3 5 8 10 8 8 9 9 14 16 15 9 10 11 12 14 20 13 9 5 4 2 6 16 10 16 12 6 8 10 11 14 16
4 7 7 6 7 7 5 5 5 5 5 6 3 4 6 7 9 7 8 3 14 19 15 13 8 10 17 28 27 5 6 7 7 4 4 3 7 17 22 15 10 12 8 11 20
5 2 6 6 7 1 4 2 6 6 6 5 4 4 6 8 7 7 7 4 13 15 15 14 11 7 21 17 22 28 16 6 3 3 10 9 12 17 15 13 10 5 8 19 24
4 5 4 8 6 6 7 7 7 5 5 4 2 5 9 9 2 9 8 7 14 12 15 15 11 10 9 14 26 38 32 22 13 7 20 8 7 20 14 13 11 7 11 15 21
5 4 8 9 7 8 7 5 4 8 7 5 4 5 4 5 10 10 9 11 10 15 9 5 20 25 20 18 23 32 38 34 25 18 10 18 22 26 23 21 20 16 15 16 17
4 6 8 6 8 9 8 6 5 3 6 7 2 5 3 3 3 13 13 11 5 15 5 11 20 28 27 27 34 41 41 39 38 25 18 21 19 27 23 23 24 21 22 23 24
4 4 7 9 9 6 7 6 6 4 6 5 3 4 2 2 5 8 12 20 20 10 4 3 12 7 14 4 22 30 29 35 33 32 29 19 20 20 13 17 27 23 21 22 24
8 9 7 14 7 3 5 3 5 6 6 7 5 1 2 3 1 6 9 16 24 13 3 2 9 4 3 12 7 14 27 23 29 33 29 29 27 16 19 24 28 24 22 21 21
Wind_Direction
236 235 233 223 222 234 232 240 252 261 264 267 269 271 274 277 277 274 274 275 273 271 269 267 270 271 265 251 223 235 248 247 249 254 266 273 243 233 225 222 220 231 246 221 227
235 238 241 244 251 256 261 263 268 272 274 277 278 280 281 284 285 273 275 274 273 271 269 268 266 258 270 255 247 239 240 247 249 258 291 273 235 226 230 224 208 210 226 227 221
225 239 256 263 263 267 274 276 274 275 277 279 278 277 277 278 280 275 279 275 271 269 268 266 267 262 258 253 238 241 246 248 247 284 265 246 286 204 217 219 215 206 232 229 221
233 246 265 267 268 272 274 274 272 272 275 275 277 279 278 269 222 278 280 284 281 276 275 273 270 272 269 260 253 248 248 252 258 260 270 251 236 245 229 222 216 220 223 238 224
266 276 276 276 278 280 277 278 281 283 285 285 285 286 285 271 266 275 279 281 279 276 273 268 264 269 270 266 258 251 251 255 252 259 268 256 237 236 234 222 225 202 204 228 239
287 290 287 288 293 292 291 289 290 292 291 291 290 288 278 266 280 284 285 286 282 278 269 263 266 235 249 237 245 247 252 254 250 246 249 256 245 228 224 216 236 222 226 228 240
297 291 290 300 299 295 296 299 298 298 295 292 291 288 281 274 279 287 288 286 285 285 277 263 261 265 248 261 274 258 260 256 248 243 247 245 249 236 227 226 219 222 223 224 227
310 303 309 309 306 307 308 305 304 303 300 298 294 290 278 280 291 293 296 302 300 297 296 286 273 269 266 261 248 264 261 253 252 248 239 236 250 243 235 227 236 222 219 208 212
324 317 319 319 316 318 314 313 312 305 300 301 302 301 312 308 317 315 319 316 315 310 303 296 294 282 271 268 269 256 253 253 259 247 241 233 249 243 218 245 224 225 215 214 207
327 324 324 329 327 324 316 313 310 314 306 331 351 325 314 324 323 331 337 334 332 328 333 308 277 277 271 260 256 259 255 251 253 246 237 236 242 235 240 226 220 219 221 219 209
333 327 328 333 328 321 310 307 311 358 358 298 37 327 341 355 351 350 355 3 9 6 335 267 278 271 278 271 269 270 264 265 262 254 238 247 233 226 227 215 213 223 215 217 201
332 328 329 337 327 311 307 305 242 278 328 46 32 10 2 16 15 9 17 11 15 20 2 344 282 279 304 291 284 282 274 270 263 257 266 247 231 235 230 228 218 215 208 213 219
332 332 334 333 324 321 323 320 295 276 324 36 8 17 15 21 9 1 5 12 9 5 2 3 343 321 315 310 301 284 275 272 274 261 260 241 243 229 228 229 224 220 209 207 208
336 343 341 332 332 338 339 332 317 292 143 41 5 341 11 40 26 338 350 9 5 358 355 346 335 338 325 314 301 286 281 284 281 271 269 242 233 230 233 238 230 214 208 210 211
351 341 336 338 338 349 5 13 51 89 284 320 355 33 358 20 356 335 348 4 356 349 326 309 315 309 300 300 296 289 285 276 278 280 264 256 260 234 230 234 237 224 217 213 208
354 339 348 350 4 17 35 62 61 84 46 358 54 6 30 345 349 359 10 331 341 340 341 319 320 327 312 297 302 288 283 276 259 260 267 257 250 251 230 232 235 239 224 226 219
357 2 10 17 19 40 65 69 16 77 9 8 324 354 16 356 356 5 1 14 7 344 339 345 342 337 330 322 304 291 295 273 249 240 248 235 247 241 239 282 242 245 193 186 182
9 28 18 25 30 48 80 68 76 19 0 326 332 4 1 4 359 357 355 354 12 360 336 350 336 351 328 320 304 290 263 262 255 240 230 234 226 221 287 122 103 146 145 153 159
31 44 26 22 27 357 348 101 69 20 330 329 336 29 12 351 357 2 17 25 7 2 355 331 314 325 333 340 320 314 238 254 270 273 311 239 217 188 139 162 134 106 159 162 173
7 45 25 13 8 331 49 99 101 33 27 46 53 25 3 355 28 23 11 5 5 7 348 327 302 336 357 347 345 268 265 270 125 199 233 204 180 33 27 59 96 63 115 138 184
20 35 358 6 29 40 66 104 76 40 83 100 55 38 27 30 25 23 19 14 10 7 1 352 302 3 34 14 0 25 226 240 234 239 318 92 81 16 8 22 23 37 48 184 207
23 336 347 6 61 36 101 165 91 40 47 52 60 62 53 26 27 25 7 337 324 355 5 11 357 70 61 35 37 47 35 272 296 5 346 58 62 2 359 351 329 253 223 227 242
50 22 12 14 32 83 100 84 84 49 60 72 71 55 76 30 38 17 358 346 340 338 5 20 358 13 15 360 32 37 39 48 98 49 27 24 53 356 359 356 336 314 272 264 258
41 5 36 66 88 87 85 67 15 36 33 49 60 30 17 74 40 19 4 2 340 331 353 57 72 87 86 61 42 45 42 42 57 35 54 23 359 355 358 356 338 310 290 276 268
42 40 48 84 85 88 91 75 52 37 37 30 59 358 25 18 31 24 27 19 357 355 75 114 98 92 90 71 56 46 35 36 44 37 36 15 11 1 354 353 323 306 295 285 276
62 43 51 88 80 73 75 62 55 34 51 7 24 334 149 49 55 23 27 29 13 8 40 176 167 104 118 23 60 46 44 40 41 37 35 20 10 1 11 9 331 326 309 294 281
75 53 64 71 88 104 104 84 34 39 24 9 355 118 167 167 141 44 25 42 10 28 94 0 171 235 75 50 53 21 23 18 23 26 26 21 10 16 23 16 355 345 335 320 299
Height
3111 3110 3110 3112 3112 3114 3115 3115 3117 3118 3119 3120 3120 3121 3121 3121 3121 3122 3124 3124 3125 3126 3127 3127 3129 3130 3131 3133 3136 3141 3141 3139 3139 3140 3139 3137 3137 3138 3141 3145 3150 3151 3148 3149 3152
3109 3109 3110 3111 3112 3114 3114 3115 3116 3117 3117 3118 3118 3119 3120 3119 3118 3119 3121 3121 3122 3123 3123 3124 3125 3127 3129 3131 3134 3136 3136 3136 3137 3137 3137 3137 3135 3138 3139 3143 3147 3147 3142 3145 3149
3109 3110 3110 3111 3112 3112 3113 3114 3115 3115 3115 3116 3116 3116 3117 3117 3116 3113 3117 3118 3118 3119 3120 3121 3122 3123 3125 3128 3132 3133 3131 3133 3133 3135 3132 3132 3135 3137 3137 3141 3143 3141 3139 3141 3146
3109 3109 3109 3111 3112 3112 3112 3113 3113 3113 3113 3113 3114 3114 3114 3114 3117 3112 3113 3115 3116 3116 3117 3118 3119 3120 3122 3124 3127 3128 3129 3129 3130 3130 3128 3129 3132 3135 3136 3140 3138 3138 3134 3138 3141
3108 3109 3109 3110 3110 3110 3111 3111 3112 3111 3111 3112 3112 3111 3111 3111 3111 3110 3110 3110 3110 3112 3112 3114 3115 3117 3118 3121 3123 3122 3124 3125 3126 3125 3125 3125 3127 3131 3133 3136 3134 3134 3133 3137 3139
3108 3108 3108 3109 3109 3109 3109 3109 3109 3109 3109 3109 3109 3109 3108 3108 3107 3106 3107 3106 3106 3107 3107 3108 3110 3110 3109 3112 3114 3116 3118 3118 3118 3118 3121 3121 3121 3125 3127 3131 3130 3131 3130 3134 3137
3107 3107 3108 3108 3108 3108 3108 3108 3107 3107 3107 3106 3106 3106 3106 3107 3104 3102 3102 3102 3101 3101 3102 3103 3104 3105 3107 3107 3109 3110 3109 3109 3109 3113 3115 3117 3114 3114 3122 3124 3126 3127 3129 3131 3132
3106 3107 3107 3108 3108 3107 3107 3106 3105 3105 3104 3104 3103 3103 3103 3102 3101 3099 3098 3098 3098 3098 3098 3098 3098 3100 3101 3102 3101 3104 3104 3101 3104 3107 3109 3113 3098 3110 3115 3118 3119 3121 3124 3127 3131
3106 3106 3106 3107 3106 3105 3104 3104 3103 3103 3103 3102 3101 3100 3101 3099 3098 3097 3096 3095 3094 3094 3095 3094 3093 3095 3097 3099 3098 3098 3094 3095 3097 3100 3103 3103 3095 3104 3109 3110 3113 3115 3119 3122 3127
3106 3105 3105 3105 3104 3104 3103 3102 3101 3101 3100 3099 3100 3102 3100 3099 3096 3095 3095 3092 3091 3090 3090 3092 3092 3093 3095 3096 3088 3093 3089 3088 3087 3093 3094 3094 3091 3098 3101 3104 3107 3111 3114 3117 3121
3105 3104 3103 3103 3103 3102 3102 3101 3102 3101 3099 3099 3099 3099 3099 3096 3094 3093 3090 3089 3087 3088 3087 3089 3090 3091 3091 3090 3087 3088 3085 3082 3080 3085 3087 3084 3086 3091 3096 3097 3100 3104 3109 3112 3116
3104 3103 3102 3101 3102 3101 3101 3100 3099 3100 3098 3097 3097 3098 3097 3095 3096 3091 3090 3089 3087 3086 3085 3085 3085 3087 3082 3081 3079 3080 3079 3075 3076 3077 3080 3077 3079 3085 3090 3091 3096 3100 3104 3108 3109
3103 3102 3101 3101 3101 3100 3099 3099 3097 3096 3098 3098 3097 3097 3095 3095 3093 3091 3090 3088 3087 3086 3084 3084 3085 3082 3080 3080 3079 3077 3078 3076 3075 3075 3072 3075 3074 3079 3084 3088 3090 3094 3099 3102 3105
3102 3102 3101 3101 3102 3099 3098 3097 3096 3096 3099 3102 3099 3098 3096 3094 3096 3091 3089 3089 3090 3087 3084 3085 3083 3081 3080 3080 3079 3077 3077 3074 3073 3073 3069 3069 3068 3076 3079 3080 3086 3087 3093 3098 3102
3101 3102 3101 3099 3099 3099 3098 3096 3095 3096 3100 3103 3101 3097 3098 3097 3096 3096 3089 3087 3088 3086 3086 3085 3081 3079 3078 3077 3077 3075 3074 3073 3071 3069 3070 3063 3068 3066 3074 3078 3076 3082 3087 3092 3096
3102 3102 3100 3100 3099 3098 3097 3096 3097 3100 3101 3103 3101 3100 3101 3098 3097 3095 3094 3090 3088 3084 3084 3081 3078 3077 3075 3074 3074 3072 3071 3070 3069 3070 3063 3060 3064 3065 3068 3072 3072 3075 3080 3087 3093
3102 3102 3101 3099 3099 3098 3097 3097 3100 3099 3102 3103 3101 3100 3100 3098 3097 3095 3095 3089 3088 3082 3080 3077 3076 3075 3073 3072 3071 3068 3068 3065 3063 3062 3058 3062 3063 3065 3068 3063 3063 3062 3070 3076 3079
3103 3102 3101 3100 3099 3098 3097 3098 3099 3102 3101 3101 3100 3100 3100 3098 3097 3096 3093 3092 3089 3087 3081 3078 3077 3075 3074 3072 3067 3065 3066 3065 3058 3056 3057 3057 3056 3064 3058 3062 3062 3061 3060 3064 3071
3103 3103 3102 3100 3099 3099 3098 3098 3101 3102 3101 3100 3101 3100 3100 3098 3097 3095 3092 3093 3090 3087 3086 3081 3077 3075 3070 3068 3066 3061 3060 3062 3060 3057 3062 3051 3055 3055 3056 3058 3058 3053 3059 3060 3064
3104 3103 3102 3101 3100 3099 3098 3099 3100 3099 3098 3100 3101 3101 3100 3098 3097 3095 3094 3094 3091 3089 3085 3082 3077 3071 3068 3066 3062 3054 3058 3059 3061 3060 3054 3044 3053 3059 3059 3056 3056 3058 3058 3058 3061
3104 3102 3102 3102 3101 3100 3099 3100 3100 3098 3098 3100 3101 3101 3100 3098 3098 3097 3096 3094 3090 3087 3085 3081 3078 3075 3070 3066 3061 3056 3057 3058 3058 3057 3053 3047 3065 3065 3059 3057 3056 3055 3053 3056 3059
3104 3105 3103 3102 3103 3102 3101 3101 3101 3101 3099 3100 3101 3100 3099 3099 3098 3097 3096 3094 3090 3089 3085 3082 3078 3074 3074 3072 3068 3060 3058 3058 3058 3059 3055 3053 3069 3065 3061 3059 3056 3053 3052 3053 3055
3104 3104 3103 3101 3101 3100 3101 3101 3101 3102 3101 3101 3101 3100 3098 3099 3099 3097 3096 3093 3090 3088 3085 3083 3081 3076 3074 3074 3070 3065 3064 3059 3060 3061 3059 3058 3068 3065 3060 3057 3054 3052 3050 3050 3051
3106 3105 3103 3103 3103 3103 3103 3104 3103 3101 3101 3100 3102 3100 3099 3100 3099 3097 3095 3093 3090 3087 3085 3086 3084 3082 3086 3088 3083 3075 3066 3067 3066 3070 3070 3071 3067 3059 3057 3055 3054 3052 3050 3049 3048
3107 3106 3104 3104 3104 3104 3104 3105 3105 3104 3103 3102 3102 3101 3101 3100 3098 3097 3095 3093 3090 3087 3085 3087 3088 3085 3087 3085 3081 3077 3069 3067 3067 3076 3075 3075 3070 3065 3059 3053 3046 3041 3042 3042 3042
3109 3107 3105 3103 3105 3106 3105 3106 3105 3104 3103 3102 3102 3101 3100 3100 3100 3098 3096 3093 3092 3088 3087 3087 3088 3087 3088 3085 3082 3087 3087 3085 3081 3079 3077 3076 3073 3067 3063 3058 3050 3045 3040 3037 3036
3109 3108 3107 3105 3107 3107 3106 3106 3105 3104 3104 3102 3100 3099 3101 3100 3100 3099 3097 3095 3093 3087 3087 3086 3086 3088 3090 3088 3087 3088 3089 3090 3089 3086 3084 3078 3076 3068 3062 3057 3050 3043 3038 3033 3028